YN9ZAM-13 Weather Reports


time (UTC)temp
C
wind
direction
speed
KPH
gust
KPH
rain 1hr
cm
rain 24hr
cm
rain mn
cm
humidity
%
barometer
mb
20260502220017 31 145 11.3 12.9 0.00 0.00 0.00 38 1007.0
20260502215017 31 145 11.3 12.9 0.00 0.00 0.00 38 1007.0
20260502214017 31 145 11.3 12.9 0.00 0.00 0.00 38 1007.0
20260502213017 31 145 11.3 12.9 0.00 0.00 0.00 38 1007.0
20260502212016 32 145 11.3 12.9 0.00 0.00 0.00 38 1008.0
20260502211016 32 145 11.3 12.9 0.00 0.00 0.00 38 1007.0
20260502210015 32 145 11.3 12.9 0.00 0.00 0.00 38 1007.0
20260502205015 33 145 11.3 12.9 0.00 0.00 0.00 38 1007.0
20260502204015 33 145 11.3 12.9 0.00 0.00 0.00 38 1008.0
20260502203014 33 145 11.3 12.9 0.00 0.00 0.00 38 1008.0
20260502202014 34 145 11.3 12.9 0.00 0.00 0.00 38 1008.0
20260502201014 32 145 11.3 12.9 0.00 0.00 0.00 35 1008.0
20260502200013 32 145 11.3 12.9 0.00 0.00 0.00 35 1008.0
20260502195013 33 145 11.3 12.9 0.00 0.00 0.00 35 1008.0
20260502194013 31 145 11.3 12.9 0.00 0.00 0.00 36 1008.0
20260502193012 31 145 11.3 12.9 0.00 0.00 0.00 36 1008.0
20260502192012 31 145 12.9 12.9 0.00 0.00 0.00 40 1009.0
20260502191012 31 145 12.9 12.9 0.00 0.00 0.00 40 1009.0
20260502190011 38 145 12.9 12.9 0.00 0.00 0.00 38 1009.0
20260502185011 38 145 12.9 12.9 0.00 0.00 0.00 38 1009.0
20260502184011 32 156 8.0 11.3 0.00 0.00 0.00 42 1009.0
20260502183010 32 156 8.0 11.3 0.00 0.00 0.00 42 1009.0
20260502182010 32 156 8.0 11.3 0.00 0.00 0.00 42 1010.0
20260502181010 33 156 8.0 11.3 0.00 0.00 0.00 42 1010.0
20260502164007 31 146 8.0 11.3 0.00 0.00 0.00 47 1012.0
20260502163006 32 146 8.0 11.3 0.00 0.00 0.00 47 1012.0
20260502162006 28 136 6.4 8.0 0.00 0.00 0.00 54 1013.0
20260502161005 29 136 6.4 8.0 0.00 0.00 0.00 54 1013.0
20260502152003 30 120 4.8 6.4 0.00 0.00 0.00 62 1013.0
20260502151003 30 120 4.8 6.4 0.00 0.00 0.00 62 1013.0
20260502123003 23 43 1.6 4.8 0.00 0.00 0.00 80 1012.0
20260502121958 23 43 1.6 4.8 0.00 0.00 0.00 80 1012.0
20260502120957 24 43 1.6 4.8 0.00 0.00 0.00 80 1012.0
20260502114957 20 36 1.6 1.6 0.00 0.00 0.00 78 1012.0
20260502113956 20 36 1.6 1.6 0.00 0.00 0.00 78 1012.0
20260502112956 21 36 1.6 1.6 0.00 0.00 0.00 78 1012.0
20260502111955 21 36 1.6 1.6 0.00 0.00 0.00 78 1012.0
20260502110955 22 36 1.6 1.6 0.00 0.00 0.00 78 1012.0
20260502105955 22 36 3.2 3.2 0.00 0.00 0.00 78 1012.0
20260502104955 19 42 1.6 1.6 0.00 0.00 0.00 72 1012.0
20260502103954 20 42 1.6 1.6 0.00 0.00 0.00 72 1012.0
20260502102954 20 42 1.6 1.6 0.00 0.00 0.00 72 1011.0
20260502101954 21 42 1.6 1.6 0.00 0.00 0.00 72 1011.0
20260502100953 21 42 1.6 1.6 0.00 0.00 0.00 72 1011.0
20260502090952 20 43 1.6 1.6 0.00 0.00 0.00 71 1011.0
20260502070948 21 95 1.6 6.4 0.00 0.00 0.00 59 1012.0
20260502065947 22 95 1.6 6.4 0.00 0.00 0.00 59 1012.0
20260502064947 22 95 1.6 6.4 0.00 0.00 0.00 59 1012.0
20260502063947 22 95 1.6 6.4 0.00 0.00 0.00 59 1012.0
20260502062947 23 95 1.6 6.4 0.00 0.00 0.00 59 1012.0
20260502061946 23 95 1.6 6.4 0.00 0.00 0.00 59 1012.0
20260502060946 24 95 1.6 6.4 0.00 0.00 0.00 59 1012.0
20260502055946 25 95 1.6 6.4 0.00 0.00 0.00 59 1012.0
20260502054946 25 95 1.6 6.4 0.00 0.00 0.00 59 1012.0
20260502053945 26 95 1.6 6.4 0.00 0.00 0.00 59 1012.0
20260502052945 26 95 3.2 6.4 0.00 0.00 0.00 59 1012.0
20260502051945 21 85 4.8 11.3 0.00 0.00 0.00 57 1012.0
20260502050945 22 85 4.8 11.3 0.00 0.00 0.00 57 1012.0
20260502045944 22 85 4.8 11.3 0.00 0.00 0.00 57 1012.0
20260502044944 23 85 4.8 11.3 0.00 0.00 0.00 57 1012.0
20260502043944 23 85 4.8 11.3 0.00 0.00 0.00 57 1012.0
20260502042943 24 85 4.8 11.3 0.00 0.00 0.00 57 1012.0
20260502041943 24 85 4.8 11.3 0.00 0.00 0.00 57 1012.0
20260502040943 25 85 4.8 11.3 0.00 0.00 0.00 57 1012.0
20260502035943 25 85 4.8 11.3 0.00 0.00 0.00 57 1012.0
20260502034942 22 83 6.4 12.9 0.00 0.00 0.00 44 1012.0
20260502033942 23 83 6.4 12.9 0.00 0.00 0.00 44 1012.0
20260502032942 23 83 6.4 12.9 0.00 0.00 0.00 44 1011.0
20260502031941 24 83 6.4 12.9 0.00 0.00 0.00 44 1011.0
20260502030941 25 83 6.4 12.9 0.00 0.00 0.00 44 1011.0
20260502025941 25 83 6.4 12.9 0.00 0.00 0.00 44 1011.0
20260502024941 26 83 6.4 12.9 0.00 0.00 0.00 44 1011.0
20260502023940 26 83 6.4 12.9 0.00 0.00 0.00 44 1011.0
20260502022940 27 83 6.4 14.5 0.00 0.00 0.00 44 1010.0
20260502021940 23 89 11.3 17.7 0.00 0.00 0.00 40 1010.0
20260502020939 24 89 11.3 17.7 0.00 0.00 0.00 40 1010.0
20260502015939 25 89 11.3 17.7 0.00 0.00 0.00 40 1010.0
20260502014939 25 89 11.3 17.7 0.00 0.00 0.00 40 1010.0
20260502013939 26 89 11.3 17.7 0.00 0.00 0.00 40 1010.0
20260502012938 26 89 11.3 17.7 0.00 0.00 0.00 40 1009.0
20260502011938 27 89 11.3 17.7 0.00 0.00 0.00 40 1009.0
20260502010938 27 89 11.3 17.7 0.00 0.00 0.00 40 1009.0
20260502005938 28 89 11.3 17.7 0.00 0.00 0.00 40 1009.0
20260502004937 28 89 11.3 17.7 0.00 0.00 0.00 40 1009.0
20260502003937 29 89 11.3 17.7 0.00 0.00 0.00 40 1009.0
20260502002936 30 89 11.3 17.7 0.00 0.00 0.00 40 1008.0
20260502001936 26 111 12.9 12.9 0.00 0.00 0.00 35 1008.0
20260502000936 26 111 12.9 12.9 0.00 0.00 0.00 35 1008.0
20260501235936 27 111 12.9 12.9 0.00 0.00 0.00 35 1008.0
20260501234935 27 111 12.9 12.9 0.00 0.00 0.00 35 1008.0
20260501233935 28 111 12.9 12.9 0.00 0.00 0.00 35 1008.0
20260501232935 28 111 12.9 12.9 0.00 0.00 0.00 35 1007.0
20260501231934 29 111 12.9 12.9 0.00 0.00 0.00 35 1007.0
20260501230934 30 111 12.9 12.9 0.00 0.00 0.00 35 1007.0
20260501225934 30 111 12.9 12.9 0.00 0.00 0.00 35 1007.0
20260501224934 31 111 12.9 12.9 0.00 0.00 0.00 35 1007.0
20260501223933 31 111 12.9 12.9 0.00 0.00 0.00 35 1007.0
20260501222933 31 111 12.9 12.9 0.00 0.00 0.00 35 1006.0
20260501221933 32 111 12.9 12.9 0.00 0.00 0.00 35 1006.0
20260501220932 32 111 12.9 12.9 0.00 0.00 0.00 35 1006.0